Terminal Aerodrome Forecast
Issued by NWS Quad Cities IA IL

Home | Current Version | Previous Version | Text Only | Print | Product List | Glossary On
Versions: 1 2 3 4 5 6 7 8 9 10 11 12 13 14 15 16 17 18 19 20 21 22 23 24 25 26 27 28 29 30 31 32
475
FTUS43 KDVN 300520
TAFDBQ
TAF
KDBQ 300520Z 3006/0106 08008KT P6SM BKN035
     FM301100 07013KT 6SM -RA BR BKN030
     FM301600 07016G24KT 3SM RA BR SCT009 OVC012
     FM302200 05015G23KT 5SM -SHRA BR OVC009
     FM010100 05014KT 6SM BR VCSH OVC006=

USA.gov is the U.S. government's official web portal to all federal, state and local government web resources and services.